TimeCDT,TemperatureF,Dew PointF,Humidity,Sea Level PressureIn,VisibilityMPH,Wind Direction,Wind SpeedMPH,Gust SpeedMPH,PrecipitationIn,Events,Conditions,WindDirDegrees,DateUTC
12:15 AM,69.8,60.8,73,30.05,10.0,ESE,12.7,-,N/A,Thunderstorm,Clear,110,2013-09-08 05:15:00
12:35 AM,68.0,59.0,73,30.07,10.0,North,5.8,-,N/A,,Clear,360,2013-09-08 05:35:00
12:55 AM,68.0,59.0,73,30.08,10.0,NNW,5.8,-,N/A,,Partly Cloudy,340,2013-09-08 05:55:00
1:15 AM,68.0,59.0,73,30.08,10.0,ENE,5.8,-,N/A,Thunderstorm,Clear,60,2013-09-08 06:15:00
1:35 AM,66.2,59.0,78,30.06,10.0,East,5.8,-,N/A,Thunderstorm,Clear,90,2013-09-08 06:35:00
2:15 AM,64.4,59.0,83,30.03,10.0,ESE,9.2,-,N/A,,Clear,110,2013-09-08 07:15:00
2:35 AM,66.2,59.0,78,30.02,10.0,East,10.4,-,N/A,Thunderstorm,Clear,100,2013-09-08 07:35:00
2:55 AM,66.2,60.8,83,30.02,10.0,ESE,13.8,-,N/A,,Clear,110,2013-09-08 07:55:00
3:15 AM,66.2,60.8,83,30.04,10.0,East,10.4,-,N/A,,Clear,80,2013-09-08 08:15:00
3:35 AM,66.2,60.8,83,30.05,10.0,East,8.1,-,N/A,,Mostly Cloudy,80,2013-09-08 08:35:00
3:55 AM,66.2,60.8,83,30.05,10.0,East,15.0,-,N/A,,Scattered Clouds,90,2013-09-08 08:55:00
4:15 AM,66.2,62.6,88,30.02,10.0,ENE,17.3,-,N/A,,Partly Cloudy,70,2013-09-08 09:15:00
4:35 AM,64.4,62.6,94,30.04,10.0,ENE,13.8,-,N/A,,Partly Cloudy,60,2013-09-08 09:35:00
4:55 AM,62.6,62.6,100,30.03,10.0,NE,16.1,-,N/A,Thunderstorm,Scattered Clouds,50,2013-09-08 09:55:00
5:15 AM,64.4,62.6,94,30.05,10.0,East,17.3,21.9,N/A,Thunderstorm,Mostly Cloudy,100,2013-09-08 10:15:00
5:35 AM,64.4,64.4,100,30.03,10.0,ESE,13.8,-,N/A,,Mostly Cloudy,110,2013-09-08 10:35:00
5:55 AM,64.4,64.4,100,30.03,10.0,ESE,10.4,-,N/A,,Overcast,110,2013-09-08 10:55:00
6:15 AM,64.4,64.4,100,30.03,8.0,ENE,6.9,-,N/A,Rain,Light Rain,60,2013-09-08 11:15:00
6:35 AM,64.4,64.4,100,30.05,8.0,ENE,16.1,21.9,N/A,,Overcast,70,2013-09-08 11:35:00
6:55 AM,62.6,62.6,100,30.05,4.0,East,17.3,-,0.03,Rain,Light Rain,100,2013-09-08 11:55:00
7:15 AM,62.6,62.6,100,30.06,5.0,East,18.4,-,N/A,,Overcast,100,2013-09-08 12:15:00
7:35 AM,62.6,62.6,100,30.06,6.0,East,18.4,-,N/A,Thunderstorm,Overcast,90,2013-09-08 12:35:00
7:55 AM,62.6,62.6,100,30.07,6.0,East,16.1,21.9,N/A,,Overcast,90,2013-09-08 12:55:00
8:15 AM,60.8,60.8,100,30.06,3.0,ESE,13.8,-,N/A,,Overcast,110,2013-09-08 13:15:00
8:35 AM,62.6,62.6,100,30.06,5.0,East,11.5,-,N/A,,Scattered Clouds,100,2013-09-08 13:35:00
8:55 AM,62.6,62.6,100,30.06,5.0,East,11.5,-,N/A,,Mostly Cloudy,100,2013-09-08 13:55:00
9:15 AM,62.6,62.6,100,30.05,9.0,East,15.0,-,N/A,,Mostly Cloudy,100,2013-09-08 14:15:00
9:35 AM,62.6,62.6,100,30.05,10.0,East,11.5,-,N/A,,Overcast,100,2013-09-08 14:35:00
9:55 AM,64.4,62.6,94,30.04,10.0,East,13.8,-,N/A,,Overcast,90,2013-09-08 14:55:00
10:15 AM,66.2,62.6,88,30.03,10.0,ESE,15.0,-,N/A,,Mostly Cloudy,110,2013-09-08 15:15:00
10:35 AM,66.2,62.6,88,30.02,10.0,ESE,13.8,-,N/A,,Partly Cloudy,110,2013-09-08 15:35:00
10:55 AM,68.0,62.6,83,30.01,10.0,East,12.7,-,N/A,,Clear,100,2013-09-08 15:55:00
11:15 AM,71.6,64.4,78,29.99,10.0,ESE,12.7,-,N/A,,Clear,120,2013-09-08 16:15:00
11:35 AM,73.4,64.4,73,29.98,10.0,ESE,12.7,-,N/A,,Clear,110,2013-09-08 16:35:00
11:55 AM,75.2,64.4,69,29.98,10.0,East,11.5,-,N/A,,Clear,100,2013-09-08 16:55:00
12:15 PM,75.2,64.4,69,29.98,10.0,SE,5.8,-,N/A,,Clear,130,2013-09-08 17:15:00
12:35 PM,75.2,64.4,69,29.98,10.0,WNW,12.7,-,N/A,,Clear,300,2013-09-08 17:35:00
12:55 PM,73.4,64.4,73,29.99,10.0,NW,15.0,19.6,N/A,,Clear,310,2013-09-08 17:55:00
1:15 PM,71.6,64.4,78,29.98,10.0,NW,9.2,-,N/A,,Clear,320,2013-09-08 18:15:00
1:35 PM,71.6,64.4,78,29.99,10.0,NW,8.1,-,N/A,,Mostly Cloudy,320,2013-09-08 18:35:00
1:55 PM,71.6,64.4,78,29.99,10.0,WNW,8.1,-,N/A,,Mostly Cloudy,300,2013-09-08 18:55:00
2:15 PM,73.4,66.2,78,29.98,10.0,NW,4.6,-,N/A,,Scattered Clouds,320,2013-09-08 19:15:00
2:35 PM,75.2,66.2,73,29.97,10.0,NW,6.9,-,N/A,,Scattered Clouds,320,2013-09-08 19:35:00
2:55 PM,75.2,64.4,69,29.97,10.0,West,6.9,-,N/A,,Mostly Cloudy,270,2013-09-08 19:55:00
3:15 PM,75.2,66.2,73,29.96,10.0,NE,8.1,-,N/A,,Overcast,40,2013-09-08 20:15:00
3:35 PM,73.4,66.2,78,29.96,10.0,NNE,6.9,-,N/A,,Overcast,20,2013-09-08 20:35:00
3:55 PM,73.4,64.4,73,29.95,10.0,NNE,8.1,-,N/A,,Overcast,30,2013-09-08 20:55:00
4:15 PM,73.4,64.4,73,29.94,10.0,NE,4.6,-,N/A,,Overcast,40,2013-09-08 21:15:00
4:35 PM,73.4,66.2,78,29.94,10.0,NE,8.1,-,N/A,,Overcast,40,2013-09-08 21:35:00
4:55 PM,73.4,66.2,78,29.93,10.0,NNE,9.2,-,N/A,,Overcast,30,2013-09-08 21:55:00
5:15 PM,71.6,66.2,83,29.94,10.0,ENE,6.9,-,N/A,,Overcast,60,2013-09-08 22:15:00
5:35 PM,71.6,64.4,78,29.92,10.0,NE,10.4,-,N/A,,Overcast,50,2013-09-08 22:35:00
5:55 PM,73.4,66.2,78,29.91,10.0,NE,9.2,-,N/A,,Scattered Clouds,50,2013-09-08 22:55:00
6:15 PM,73.4,64.4,73,29.91,10.0,East,9.2,-,N/A,,Mostly Cloudy,80,2013-09-08 23:15:00
6:35 PM,71.6,64.4,78,29.91,10.0,SE,12.7,-,N/A,,Overcast,130,2013-09-08 23:35:00
6:55 PM,71.6,62.6,73,29.90,10.0,ESE,8.1,-,N/A,,Overcast,110,2013-09-08 23:55:00
7:15 PM,69.8,62.6,78,29.89,10.0,ESE,6.9,-,N/A,,Mostly Cloudy,120,2013-09-09 00:15:00
7:35 PM,68.0,62.6,83,29.89,10.0,East,5.8,-,N/A,,Partly Cloudy,90,2013-09-09 00:35:00
7:55 PM,68.0,64.4,88,29.89,10.0,East,6.9,-,N/A,,Clear,80,2013-09-09 00:55:00
8:15 PM,68.0,64.4,88,29.91,9.0,SE,3.5,-,N/A,Rain,Light Rain,140,2013-09-09 01:15:00
8:35 PM,66.2,66.2,100,29.92,4.0,Calm,Calm,-,0.04,Rain-Thunderstorm,Light Thunderstorms and Rain,0,2013-09-09 01:35:00
8:55 PM,66.2,66.2,100,29.92,3.0,West,4.6,-,0.08,Rain-Thunderstorm,Light Rain,280,2013-09-09 01:55:00
9:15 PM,66.2,66.2,100,29.94,2.5,West,10.4,-,0.08,Rain-Thunderstorm,Heavy Thunderstorms and Rain,270,2013-09-09 02:15:00
9:35 PM,66.2,66.2,100,29.91,3.0,SSW,6.9,-,0.18,Rain-Thunderstorm,Rain,200,2013-09-09 02:35:00
9:55 PM,66.2,64.4,94,29.92,10.0,South,12.7,16.1,0.19,Rain-Thunderstorm,Light Rain,180,2013-09-09 02:55:00
10:15 PM,66.2,59.0,78,29.89,10.0,South,5.8,-,N/A,Rain,Light Rain,170,2013-09-09 03:15:00
10:35 PM,64.4,59.0,83,29.90,10.0,WNW,3.5,-,0.01,,Mostly Cloudy,300,2013-09-09 03:35:00
10:55 PM,66.2,59.0,78,29.90,10.0,WNW,6.9,-,0.01,,Mostly Cloudy,290,2013-09-09 03:55:00
11:15 PM,64.4,60.8,88,29.92,3.0,West,13.8,-,0.06,Rain,Rain,270,2013-09-09 04:15:00
11:35 PM,62.6,62.6,100,29.88,8.0,Calm,Calm,-,0.13,Rain,Light Rain,0,2013-09-09 04:35:00
11:55 PM,62.6,62.6,100,29.86,10.0,SW,5.8,-,0.13,,Clear,220,2013-09-09 04:55:00